Location: Coopersdale
(40.3556°N, 78.9372°W)
Time: 08:37:55
(UTC+00:00)

Envisat - Pass Details

Date: 26 November 2020
Orbit: 764 x 766 km, 98.1° (Epoch: 15 January)

Event Time Altitude Azimuth Distance (km) Brightness Sun altitude
Rises 22:59:39 0° 188° (S) 3,217 6.6 -12.8°
Reaches altitude 10° 23:02:08 10° 197° (SSW) 2,296 5.9 -13.3°
Maximum altitude 23:06:44 35° 263° (W) 1,216 4.8 -14.1°
Drops below altitude 10° 23:11:24 10° 329° (NNW) 2,311 5.7 -15.0°
Sets 23:13:54 0° 338° (NNW) 3,242 6.3 -15.5°
